Location: *
(39.8760°N, 8.6440°E)
Time: 10:20:30
(UTC+00:00)

Daily predictions for brighter satellites

Satellite Brightness Start Highest point End
(mag) Time Altitude Azimuth Time Altitude Azimuth Time Altitude Azimuth
COSMOS 2428 4.4 18:03:05 10° SW 18:08:26 40° WNW 18:13:49 10° N
STARLINK-1239 3.5 18:05:19 10° SW 18:09:18 74° SE 18:13:19 10° NE
STARLINK-1247 3.7 18:07:07 10° WSW 18:10:10 53° NW 18:13:14 10° NE
STARLINK-1227 3.7 18:07:32 10° WSW 18:10:36 53° NW 18:13:41 10° NE
ISS -1.0 18:09:35 10° NNW 18:10:42 11° N 18:11:48 10° NNE
STARLINK-1218 3.7 18:08:02 10° WSW 18:11:04 52° NW 18:14:08 10° NE
CZ-2C R/B 4.1 18:07:21 10° ESE 18:11:24 24° ENE 18:15:19 10° NNE
STARLINK-1226 3.7 18:08:29 10° WSW 18:11:32 51° NW 18:14:36 10° NE
STARLINK-1254 3.7 18:08:54 10° WSW 18:11:57 51° NW 18:15:01 10° NE
STARLINK-1215 3.8 18:09:24 10° WSW 18:12:26 50° NW 18:15:29 10° NE
STARLINK-1231 3.8 18:09:50 10° WSW 18:12:52 50° NW 18:15:55 10° NE
Cosmos 1048 Rocket 4.0 18:08:00 10° SSW 18:13:07 89° ESE 18:18:20 10° NNE
STARLINK-1232 3.8 18:10:45 10° WSW 18:13:47 49° NW 18:16:50 10° NE
STARLINK-1240 3.5 18:09:54 10° SW 18:13:54 81° SE 18:17:55 10° NE
STARLINK-1217 3.8 18:11:13 10° WSW 18:14:14 48° NW 18:17:16 10° NE
STARLINK-1208 3.9 18:11:39 10° WSW 18:14:40 48° NW 18:17:44 10° NE
STARLINK-1229 3.9 18:12:07 10° WSW 18:15:08 47° NW 18:18:09 10° NE
Meteor 1-22 Rocket 4.5 18:10:20 10° SSE 18:15:17 41° E 18:20:12 10° NNE
STARLINK-1271 3.9 18:12:35 10° WSW 18:15:35 47° NW 18:18:37 10° NE
STARLINK-1270 3.9 18:13:02 10° WSW 18:16:03 46° NW 18:19:04 10° NE
CSL-04 Debris 4.3 18:10:38 10° SSE 18:16:07 88° WSW 18:21:39 10° NNW
STARLINK-1154 3.9 18:13:28 10° WSW 18:16:29 46° NW 18:19:31 10° NE
Cosmos 1939 Rocket 3.3 18:13:22 10° S 18:17:19 68° WSW 18:21:16 10° NNW
STARLINK-1197 4.0 18:14:23 10° WSW 18:17:24 45° NW 18:20:25 10° NE
STARLINK-1189 4.0 18:14:51 10° WSW 18:17:51 44° NW 18:20:52 10° NE
STARLINK-1216 3.5 18:14:30 10° SW 18:18:30 89° SSE 18:22:32 10° NE
STARLINK-1187 4.3 18:15:46 10° WSW 18:18:43 38° NW 18:21:41 10° NE
STARLINK-1188 4.0 18:15:45 10° WSW 18:18:45 43° NW 18:21:45 10° NE
STARLINK-1198 4.0 18:16:00 10° WSW 18:19:00 43° NW 18:22:00 10° NE
Cosmos 494 Rocket 4.0 18:14:27 10° S 18:19:29 58° ESE 18:24:34 10° NNE
Abrixas rocket 3.6 18:18:27 10° S 18:20:31 18° SE 18:22:34 10° E
Cosmos 1733 3.6 18:17:07 10° SSE 18:20:38 39° E 18:24:10 10° NNE
STARLINK-1199 4.1 18:17:43 10° WSW 18:20:42 42° NW 18:23:43 10° NE
STARLINK-1191 4.1 18:18:11 10° WSW 18:21:10 41° NW 18:24:10 10° NE
STARLINK-1210 4.1 18:18:37 10° WSW 18:21:37 41° NW 18:24:37 10° NE
STARLINK-1221 4.2 18:19:06 10° WSW 18:22:04 41° NW 18:25:05 10° NE
STARLINK-1219 4.2 18:19:33 10° WSW 18:22:32 40° NW 18:25:31 10° NE
STARLINK-1222 4.2 18:20:00 10° WSW 18:22:57 40° NW 18:25:58 10° NE
STARLINK-1237 3.6 18:19:08 10° SW 18:23:10 84° NW 18:27:12 10° NE
Cosmos 371 Rocket 3.3 18:18:27 10° NNW 18:23:18 83° ENE 18:28:08 10° SSE
FREGAT/IRIS 4.0 18:21:24 10° ESE 18:23:22 18° ENE 18:25:20 10° NNE
STARLINK-1211 4.2 18:20:27 10° WSW 18:23:25 40° NW 18:26:24 10° NE
STARLINK-1214 4.2 18:20:55 10° WSW 18:23:52 39° NW 18:26:52 10° NE
Cosmos 1452 Rocket 4.0 18:19:06 10° NNW 18:24:21 67° WSW 18:29:33 10° S
STARLINK-1245 4.3 18:21:24 10° WSW 18:24:21 39° NW 18:27:18 10° NE
USA 81 4.2 18:19:30 10° N 18:24:40 52° E 18:29:47 10° SSE
STARLINK-1238 4.3 18:21:50 10° WSW 18:24:47 38° NW 18:27:46 10° NE
STARLINK-1205 4.3 18:22:47 10° WSW 18:25:43 38° NW 18:28:40 10° NE
STARLINK-1204 4.3 18:23:13 10° WSW 18:26:09 37° NW 18:29:05 10° NE
STARLINK-1202 3.7 18:23:45 10° SW 18:27:46 77° NW 18:31:48 10° NE
Cosmos 1331 Rocket 4.4 18:23:43 10° N 18:28:39 43° ENE 18:33:32 10° SE
Cosmos 1674 2.5 18:26:15 10° N 18:30:01 78° E 18:33:44 10° S
Orbus 7S? 2.3 18:27:55 10° NW 18:30:43 62° NE 18:32:46 13° SE
SL-14 R/B 4.3 18:28:17 10° NNE 18:31:48 28° ENE 18:35:17 10° SE
STARLINK-1246 3.9 18:28:43 10° WSW 18:32:46 70° NW 18:36:49 10° NE
KORONAS-FOTON 3.7 18:29:20 10° N 18:33:10 78° E 18:36:56 10° S
NOSS 3-1 (A) 4.4 18:26:51 10° NW 18:34:39 76° WSW 18:43:25 10° SSE
Cosmos 1766 3.3 18:32:17 10° S 18:36:17 85° W 18:40:17 10° N
S3M 4.1 18:31:35 10° S 18:37:57 89° E 18:44:23 10° N
Cosmos 1943 Rocket 3.8 18:35:15 10° NNE 18:38:39 16° NE 18:41:19 12° E
Ariane Rocket 3.0 18:34:53 10° SSE 18:39:53 63° ENE 18:44:54 10° N
YAOGAN 1 4.2 18:36:10 10° SSW 18:40:09 37° W 18:44:11 10° NNW
CZ-3B R/B 4.3 18:35:44 10° SSW 18:41:28 69° ESE 19:13:20 10° NE
STARLINK-1224 4.1 18:37:45 10° WSW 18:41:44 59° NW 18:45:43 10° NE
Cosmos 1455 Rocket 2.9 18:38:54 10° S 18:43:12 75° E 18:47:33 10° N
BREEZE-M DEB (TANK) 3.1 18:33:17 10° WNW 18:44:49 89° NNE 18:47:18 18° ESE
Cosmos 1386 Rocket 4.4 18:39:37 10° N 18:45:42 82° E 18:51:42 10° S
SL-08 ROCKET BODY 4.4 18:39:46 10° N 18:45:55 81° E 18:51:55 10° S
STARLINK-1225 4.3 18:42:29 10° WSW 18:46:26 54° NW 18:50:25 10° NE
STARLINK-1203 4.5 18:44:35 10° WSW 18:48:25 47° NW 18:52:14 10° NE
SL-16 R/B 2.2 18:43:52 10° S 18:49:27 65° ESE 18:55:03 10° NNE
Cosmos 1110 Rocket 3.9 18:44:19 10° NNW 18:49:35 77° ENE 18:54:46 10° SSE
Cosmos 332 Rocket 4.1 18:45:52 10° NNW 18:50:46 71° WSW 18:55:39 10° S
STARLINK-1230 4.4 18:47:10 10° WSW 18:51:05 50° NW 18:55:01 10° NE
USA 186 2.0 18:49:02 10° SSE 18:52:24 57° ENE 18:55:47 10° N
Cosmos 1892 Rocket 3.8 18:48:45 10° N 18:53:14 76° W 18:57:41 10° S
ARGOS Delta rocket 4.0 18:48:17 10° SSE 18:53:18 85° ENE 18:58:38 10° N
Cosmos 1953 3.8 18:53:54 18° ENE 18:53:54 18° ENE 18:56:06 10° NE
Cosmos 1626 Rocket 4.2 18:50:46 10° N 18:54:49 35° ENE 18:57:13 20° SE
STARLINK-1096 4.4 18:52:53 10° NW 18:56:37 36° NNE 18:58:31 23° E
Cosmos 1626 2.2 18:54:06 10° N 18:57:44 52° E 19:00:21 17° SSE
Aureole 3 4.4 18:57:25 24° ESE 18:58:30 27° E 19:02:23 10° NNE
STARLINK-1079 4.3 18:57:19 10° NW 19:01:06 39° NNE 19:02:49 25° E
Okean 1-7 Rocket 3.8 18:56:45 10° NNW 19:01:08 73° W 19:05:29 10° S
Cosmos 1602 Rocket 4.3 18:58:19 10° NNE 19:02:23 33° ENE 19:03:55 26° ESE
H-2A R/B 2.1 18:58:48 10° SSE 19:04:10 87° ENE 19:09:25 10° NNW
STARLINK-1116 4.2 19:01:46 10° NW 19:05:36 42° NNE 19:07:08 28° E
DMSP B5D2-2 4.4 19:03:13 10° NNE 19:08:06 40° E 19:12:58 10° SSE
Cosmos 883 Rocket 4.5 19:02:00 10° S 19:08:11 88° WNW 19:14:28 10° N
Cosmos 1544 Rocket 3.8 19:06:16 10° SSW 19:10:37 73° W 19:15:03 10° N
STARLINK-1118 2.9 19:09:29 10° WNW 19:11:31 41° SW 19:11:31 41° SW
STARLINK-1094 4.0 19:10:42 10° NW 19:14:37 48° NE 19:15:46 36° E
USA 234 3.3 19:09:48 10° NE 19:16:22 81° NW 19:22:54 10° SW
Cosmos 2297 3.6 19:11:41 10° NNW 19:17:23 75° ENE 19:20:56 24° SSE
CZ-2C R/B 3.7 19:12:56 10° NNE 19:17:41 71° ESE 19:22:21 10° S
STARLINK-1117 3.8 19:15:12 10° NW 19:19:08 52° NE 19:20:06 41° E
Cosmos 2237 Rocket 4.4 19:15:19 10° WSW 19:20:02 27° NW 19:24:48 10° N
STARLINK-1078 3.7 19:19:40 10° NW 19:23:38 57° NE 19:24:26 47° E
Cosmos 1302 Rocket 3.9 19:21:51 10° NNW 19:27:09 78° ENE 19:29:43 31° SSE
STARLINK-1108 3.6 19:24:11 10° NW 19:28:11 62° NE 19:28:47 54° E
Cosmos 2278 Rocket 4.4 19:24:47 10° NW 19:29:14 24° WSW 19:33:40 10° SSW
CZ-2C R/B 2.6 19:24:43 10° NNE 19:29:46 53° E 19:32:38 25° SSE
Cosmos 2184 Rocket 4.4 19:24:47 10° N 19:30:44 41° ENE 19:32:14 36° ESE
ARGOS 3.6 19:26:56 10° S 19:32:17 63° WSW 19:37:39 10° NNW
STARLINK-1066 3.1 19:29:23 10° NW 19:32:18 70° W 19:32:18 70° W
STARLINK-1071 3.5 19:28:41 10° NW 19:32:42 68° NE 19:33:08 61° ENE
STARLINK-1081 3.1 19:29:51 10° NW 19:32:41 67° W 19:32:41 67° W
STARLINK-1070 3.1 19:30:18 10° NW 19:33:06 66° W 19:33:06 66° W
Cosmos 2251 Rocket 3.6 19:28:34 10° S 19:33:43 53° ESE 19:38:57 10° NNE
STARLINK-1124 3.5 19:29:35 10° NW 19:33:44 70° NE 19:34:14 62° E
STARLINK-1069 3.1 19:30:42 10° NW 19:33:34 66° W 19:33:34 66° W
STARLINK-1085 3.2 19:31:09 10° NW 19:34:00 65° W 19:34:00 65° W
STARLINK-1086 3.2 19:31:39 10° NW 19:34:25 62° W 19:34:25 62° W
STARLINK-1095 3.3 19:32:06 10° NW 19:34:50 61° W 19:34:50 61° W
STARLINK-1077 3.3 19:32:32 10° NW 19:35:16 60° W 19:35:16 60° W
STARLINK-1075 3.3 19:33:00 10° NW 19:35:42 59° W 19:35:42 59° W
STARLINK-1093 3.3 19:33:25 10° NW 19:36:10 59° W 19:36:10 59° W
STARLINK-1074 3.4 19:33:52 10° NW 19:36:36 58° W 19:36:36 58° W
STARLINK-1110 3.4 19:33:12 10° NW 19:37:14 74° NE 19:37:29 70° ENE
STARLINK-1087 3.5 19:34:21 10° NW 19:37:00 55° W 19:37:00 55° W
STARLINK-1088 3.5 19:34:48 10° NW 19:37:26 54° W 19:37:26 54° W
STARLINK-1115 3.5 19:35:14 10° NW 19:37:55 55° W 19:37:55 55° W
STARLINK-1076 3.5 19:35:40 10° NW 19:38:20 54° W 19:38:20 54° W
STARLINK-1092 3.6 19:36:08 10° NW 19:38:47 53° W 19:38:47 53° W
SL-24 R/B 4.1 19:35:01 10° N 19:39:32 76° WNW 19:43:19 11° SSW
Cosmos 1470 3.6 19:35:49 10° SSW 19:39:34 50° W 19:43:21 10° N
STARLINK-1080 3.6 19:36:37 10° NW 19:39:10 50° W 19:39:10 50° W
STARLINK-1090 3.7 19:37:03 10° WNW 19:39:36 50° W 19:39:36 50° W
STARLINK-1089 3.7 19:37:31 10° WNW 19:40:02 49° W 19:40:02 49° W
STARLINK-1107 3.7 19:37:58 10° WNW 19:40:28 48° W 19:40:28 48° W
SL-08 RB Rocket 4.1 19:40:53 23° S 19:43:32 60° W 19:48:02 10° NNW
SJ-6B 4.0 19:42:00 18° SSW 19:44:43 42° W 19:48:38 10° NNW
MetOp-A 4.1 19:42:29 32° SSE 19:45:02 87° WSW 19:50:26 10° NNW
Resurs 1-3 3.5 19:44:43 63° SSE 19:45:25 87° ENE 19:49:50 10° NNW
STARLINK-1122 3.4 19:42:20 10° NW 19:46:17 85° NNW 19:46:17 85° NNW
Cosmos 1758 4.4 19:43:32 10° SSW 19:47:28 46° W 19:51:26 10° N
ISS -1.4 19:46:17 10° NNW 19:48:11 17° N 19:48:11 17° N
STARLINK-1126 3.6 19:46:59 10° NW 19:50:44 76° WNW 19:50:44 76° WNW
CZ-2C R/B 4.3 19:46:22 10° SSW 19:51:05 36° W 19:55:38 10° NNW
BREEZE M DEB (TANK) 3.7 19:40:20 10° SW 19:52:46 75° SE 19:53:49 55° E
Resurs 01 Rocket 1.6 19:53:04 69° NE 19:53:04 69° NE 19:57:11 10° N
IRIDIUM 104 4.3 19:49:26 10° N 19:54:41 84° W 19:56:26 43° S
STARLINK-1082 3.8 19:51:33 10° NW 19:55:08 67° WNW 19:55:08 67° WNW
Abrixas rocket 4.4 19:53:01 10° WSW 19:54:13 21° W 19:54:13 21° W
Cosmos 2369 Rocket 2.5 19:52:15 10° NNW 19:57:47 49° ENE 19:57:50 49° ENE
Cosmos 967 Rocket 4.4 19:52:07 10° SSW 19:58:26 62° ESE 20:04:49 10° NE
STARLINK-1100 4.0 19:56:07 10° NW 19:59:31 58° W 19:59:31 58° W
SPOT 3 Rocket 4.2 20:00:43 28° SSW 20:03:17 52° W 20:08:24 10° NNW
Cosmos 1726 4.3 20:06:30 20° N 20:06:30 20° N 20:07:45 10° N
STARLINK-1083 4.3 20:00:44 10° NW 20:03:57 51° W 20:03:57 51° W
Nadezhda 1 Rocket 3.9 20:06:17 62° ESE 20:06:36 63° E 20:12:54 10° NNE
Meteor 1-21 Rocket 4.3 20:04:49 10° NNW 20:10:22 72° W 20:11:31 55° SSW
MOS 1 Rocket 4.1 20:09:34 10° N 20:14:43 57° WNW 20:19:07 15° SSW
Cosmos 1943 4.2 20:19:28 33° NNE 20:19:28 33° NNE 20:22:33 10° NNE
Cosmos 292 Rocket 4.2 20:15:13 10° NNW 20:19:07 59° NNW 20:19:07 59° NNW
Cosmos 1943 Rocket 2.1 20:17:29 10° NNW 20:22:52 77° W 20:22:52 77° W
Cosmos 2074 Rocket 4.1 20:19:17 10° NNW 20:25:32 71° W 20:26:46 56° SSW
Cosmos 1953 4.2 20:29:29 27° WNW 20:29:29 27° WNW 20:32:55 10° NNW
NOSS 3-3 (A) 4.0 20:25:46 10° SW 20:31:30 70° NW 20:37:58 10° NNE
NOSS 3-3 (C) 4.0 20:25:51 10° SW 20:31:36 70° NW 20:38:04 10° NNE
Spot 2 Rocket 4.1 20:33:06 51° NNW 20:33:06 51° NNW 20:36:54 10° NNW
Cosmos 1610 Rocket 4.5 20:33:21 10° N 20:39:03 75° NNW 20:39:03 75° NNW
Terra 4.2 20:49:37 16° NNE 20:49:37 16° NNE 20:50:39 10° N
ATLAS 2AS CENTAUR R/B 3.4 20:51:13 10° NNW 20:57:41 45° NNE 20:57:41 45° NNE
Cosmos 2369 Rocket 4.4 21:37:07 10° NW 21:39:38 19° WNW 21:39:38 19° WNW
